Date,TemperatureHighF,TemperatureAvgF,TemperatureLowF,DewpointHighF,DewpointAvgF,DewpointLowF,HumidityHigh,HumidityAvg,HumidityLow,PressureMaxIn,PressureMinIn,WindSpeedMaxMPH,WindSpeedAvgMPH,GustSpeedMaxMPH,PrecipitationSumIn
2013-1-1,48,43,38,46,40,36,96,91,80,30.08,29.58,10,5,21,0.04
2013-1-2,51,50,47,51,50,46,100,99,97,30.30,30.05,17,10,27,0.35
2013-1-3,51,51,50,51,50,50,100,99,96,30.52,30.31,19,10,28,0.21
2013-1-4,52,50,49,50,49,48,96,94,92,30.53,30.37,10,6,17,0.00
2013-1-5,53,50,46,52,49,46,99,96,92,30.42,30.27,12,6,22,0.16
2013-1-6,52,50,47,51,50,46,99,98,98,30.40,30.13,9,5,18,0.55
2013-1-7,53,52,50,52,51,50,99,99,99,30.12,29.91,9,5,17,0.78
2013-1-8,53,47,38,53,46,37,99,95,83,30.27,29.91,14,5,25,0.03
2013-1-9,43,40,36,42,39,36,99,98,95,30.25,30.02,6,3,12,0.01
2013-1-10,49,42,37,46,40,35,98,92,82,30.02,29.84,14,6,26,0.02
2013-1-11,50,42,38,48,41,37,99,97,93,30.02,29.82,11,5,20,0.02
2013-1-12,45,42,37,44,39,35,98,90,86,30.10,29.81,9,5,17,0.01
2013-1-13,48,40,31,46,38,30,99,94,87,30.19,30.10,7,2,11,0.02
2013-1-14,47,43,37,45,40,34,97,91,84,30.13,29.99,11,5,20,0.08
2013-1-15,44,40,36,42,38,34,97,92,87,30.01,29.67,6,3,14,0.20
2013-1-16,46,43,39,46,42,38,99,98,97,29.85,29.68,6,3,12,0.09
2013-1-17,49,46,44,48,45,43,99,97,92,29.85,29.31,14,5,26,0.39
2013-1-18,49,45,40,48,44,40,98,96,88,29.31,29.20,11,5,21,0.45
2013-1-19,43,38,33,41,37,32,98,95,91,29.58,29.26,5,2,13,0.01
2013-1-20,38,36,32,34,32,31,97,88,76,29.56,29.34,9,5,22,0.00
2013-1-21,40,36,30,36,33,29,95,89,81,29.40,29.34,5,2,11,0.00
2013-1-22,38,32,28,36,32,27,99,96,93,29.72,29.37,5,2,11,0.06
2013-1-23,41,37,33,37,35,32,97,93,87,29.85,29.65,7,3,19,0.00
2013-1-24,43,37,30,42,36,29,97,95,92,29.95,29.82,8,4,19,0.02
2013-1-25,49,45,40,49,44,37,98,95,83,29.82,29.37,12,7,26,0.57
2013-1-26,53,45,37,52,44,36,99,96,88,29.70,28.99,17,7,27,0.42
2013-1-27,46,41,39,46,39,36,98,90,80,29.45,28.97,23,14,49,0.43
2013-1-28,52,46,40,49,43,38,98,88,78,29.51,29.05,25,14,48,0.40
2013-1-29,55,49,44,54,46,43,98,90,85,29.33,29.10,22,13,37,0.20
2013-1-30,49,46,43,45,42,40,96,88,76,29.81,29.32,26,13,59,0.27
2013-1-31,50,46,43,45,42,39,88,84,78,29.76,29.47,26,16,49,0.14
2013-2-1,48,44,39,42,40,36,92,86,78,30.00,29.56,13,7,28,0.01
2013-2-2,47,42,34,45,39,32,97,89,74,30.30,30.01,11,3,23,0.05
2013-2-3,50,50,46,50,49,45,99,98,96,30.14,29.92,17,10,27,0.12
2013-2-4,48,42,36,42,38,32,92,85,77,30.02,29.75,20,14,46,0.14
2013-2-5,48,40,34,44,37,32,96,89,80,29.94,29.60,16,10,35,0.31
2013-2-6,46,41,37,40,37,34,94,87,79,30.35,29.94,11,5,26,0.04
2013-2-7,50,44,38,46,40,34,97,86,70,30.35,30.12,14,7,34,0.06
2013-2-8,52,46,43,46,43,39,96,89,77,30.36,30.25,12,6,17,0.02
2013-2-9,49,47,46,48,46,45,98,97,95,30.25,29.62,7,5,15,0.25
2013-2-10,47,44,41,47,44,40,99,97,93,29.61,29.38,8,5,16,0.06
2013-2-11,42,41,40,41,40,38,96,95,92,29.80,29.73,3,1,7,0.31
2013-2-12,46,42,40,44,41,39,98,96,93,29.95,29.80,11,3,18,0.08
2013-2-13,51,48,42,50,47,41,100,99,97,29.88,29.65,19,9,34,0.59
2013-2-14,51,45,41,46,43,40,98,92,78,30.08,29.71,11,6,20,0.04
2013-2-15,50,45,40,46,43,39,96,91,80,30.12,30.04,6,4,16,0.02
2013-2-16,49,48,47,48,46,45,98,93,85,30.05,29.89,13,6,27,0.02
2013-2-17,52,48,44,46,43,39,89,82,70,29.89,29.82,14,9,32,0.00
2013-2-18,50,46,41,44,40,37,91,82,69,30.00,29.86,10,6,24,0.00
2013-2-19,52,46,38,45,42,36,93,87,71,30.03,29.96,9,4,14,0.00
2013-2-20,50,41,34,43,38,33,97,88,73,30.03,29.98,10,5,22,0.01
2013-2-21,44,40,37,39,35,29,86,80,73,30.09,30.00,14,9,31,0.00
2013-2-22,39,36,34,30,28,27,77,72,66,30.28,30.09,11,5,23,0.00
2013-2-23,38,35,30,32,30,26,87,80,71,30.36,30.27,4,1,9,0.00
2013-2-24,44,35,27,33,29,26,96,79,57,30.48,30.34,6,2,14,0.00
2013-2-25,47,35,26,36,31,24,95,83,61,30.57,30.48,4,1,10,0.01
2013-2-26,46,38,30,39,35,29,97,89,77,30.66,30.57,7,2,14,0.00
2013-2-27,43,41,39,40,39,37,94,91,87,30.68,30.63,7,3,13,0.00
2013-2-28,44,39,35,41,37,34,96,93,87,30.63,30.52,8,4,15,0.01
2013-3-1,51,43,35,44,40,33,98,89,75,30.53,30.46,6,2,13,0.00
2013-3-2,48,40,32,38,35,31,97,86,67,30.49,30.30,6,1,11,0.00
2013-3-3,48,42,38,39,37,34,92,83,68,30.30,30.02,6,3,18,0.00
2013-3-4,44,41,38,41,38,34,92,88,82,30.02,29.70,8,3,14,0.00
2013-3-5,50,43,34,44,39,33,95,88,75,29.69,29.50,6,3,14,0.13
2013-3-6,50,46,42,48,45,40,97,94,91,29.50,29.36,8,5,17,0.13
2013-3-7,51,49,47,49,47,46,97,95,91,29.36,29.18,8,5,19,0.04
2013-3-8,56,51,48,53,49,46,97,92,84,29.40,29.15,8,6,23,0.07
2013-3-9,57,49,43,49,46,40,94,88,69,29.63,29.35,13,8,28,0.00
2013-3-10,42,40,33,40,35,27,89,83,71,29.96,29.63,15,11,30,0.00
2013-3-11,39,33,29,27,23,17,80,68,41,30.15,29.96,16,11,31,0.00
2013-3-12,46,36,26,37,28,21,94,75,55,30.18,30.06,7,4,16,0.00
2013-3-13,50,41,33,43,37,31,96,87,68,30.14,30.03,8,3,19,0.02
2013-3-14,51,44,35,44,40,33,95,87,71,30.14,29.67,16,7,29,0.12
2013-3-15,48,42,37,44,40,36,96,90,76,29.66,29.33,14,7,24,0.32
2013-3-16,48,38,31,40,35,30,99,88,62,29.39,29.28,7,3,16,0.02
2013-3-17,47,40,33,42,37,32,96,89,79,29.36,29.17,11,5,26,0.08
2013-3-18,47,40,33,40,36,33,98,87,65,29.49,29.20,8,3,17,0.01
2013-3-19,41,38,32,36,34,30,92,86,78,29.57,29.49,10,6,18,0.00
2013-3-20,47,40,31,36,34,29,95,80,63,29.81,29.57,4,2,9,0.00
2013-3-21,44,41,36,42,38,33,95,89,83,29.79,29.32,14,10,35,0.37
2013-3-22,50,47,44,48,45,42,97,95,91,29.53,29.25,15,10,33,0.24
2013-3-23,46,43,39,44,40,36,95,89,82,29.85,29.53,11,7,24,0.01
2013-3-24,39,38,37,36,33,32,88,84,77,30.02,29.85,11,7,26,0.00
2013-3-25,42,38,32,32,29,27,84,71,59,30.09,30.02,11,7,27,0.00
2013-3-26,41,35,32,33,30,28,92,83,69,30.10,30.03,9,6,19,0.00
2013-3-27,41,35,30,33,30,28,95,83,65,30.04,30.00,10,6,21,0.00
2013-3-28,42,35,28,31,28,26,95,77,56,30.02,29.83,10,6,23,0.01
2013-3-29,43,38,32,29,28,27,79,67,55,29.83,29.76,12,7,25,0.00
2013-3-30,47,39,31,30,28,26,81,66,51,29.91,29.83,10,5,21,0.00
2013-3-31,44,40,36,37,34,28,86,79,70,29.85,29.72,11,8,25,0.00
2013-4-1,45,40,36,33,30,28,81,69,56,29.88,29.72,13,9,31,0.00
2013-4-2,50,42,36,32,29,21,76,62,33,30.14,29.88,9,6,22,0.00
2013-4-3,50,40,30,35,29,24,92,67,40,30.23,30.14,9,5,22,0.00
2013-4-4,49,39,31,33,29,23,87,68,49,30.25,30.19,12,5,24,0.00
2013-4-5,51,41,32,37,32,29,88,73,48,30.27,30.21,8,3,16,0.00
2013-4-6,53,42,33,37,33,29,91,71,40,30.31,30.16,8,3,14,0.00
2013-4-7,48,43,37,38,35,32,84,74,60,30.16,29.74,11,6,23,0.00
2013-4-8,50,45,38,37,35,32,84,69,55,29.74,29.41,13,8,28,0.00
2013-4-9,48,44,38,37,36,34,86,74,63,29.59,29.41,11,7,24,0.00
2013-4-10,55,46,40,47,42,35,93,85,66,29.59,29.40,7,3,15,0.09
2013-4-11,54,47,43,48,45,42,97,91,73,29.39,29.22,7,4,17,0.37
2013-4-12,53,47,41,45,42,38,97,86,69,29.67,29.30,7,3,15,0.06
2013-4-13,55,46,37,53,44,36,97,94,86,29.66,29.26,11,5,27,0.30
2013-4-14,58,52,50,51,48,46,97,87,72,29.47,29.26,19,11,40,0.17
2013-4-15,60,51,48,50,48,45,97,88,65,29.74,29.31,19,11,37,0.19
2013-4-16,55,50,46,47,44,41,90,81,66,29.88,29.30,27,15,52,0.03
2013-4-17,59,52,46,54,49,42,98,91,75,29.82,29.08,19,10,33,1.00
2013-4-18,53,47,43,47,44,41,97,89,75,30.18,29.27,19,12,35,0.25
2013-4-19,54,48,42,47,43,40,94,84,68,30.45,30.19,14,7,21,0.01
2013-4-20,56,50,45,47,45,43,92,81,63,30.45,30.14,17,8,29,0.00
2013-4-21,54,49,45,48,45,42,95,86,67,30.13,29.98,15,9,30,0.39
2013-4-22,55,51,47,53,49,44,99,94,85,29.99,29.82,18,11,29,0.06
2013-4-23,57,53,50,53,50,48,97,91,78,30.15,29.97,15,8,22,0.04
2013-4-24,55,50,44,54,48,42,99,93,83,30.25,30.03,14,6,24,0.31
2013-4-25,56,47,41,47,42,38,98,86,59,30.24,30.16,13,5,21,0.12
2013-4-26,51,43,39,42,38,36,93,83,63,30.24,30.17,12,6,28,0.10
2013-4-27,54,47,40,41,39,36,89,74,55,30.25,30.14,8,6,18,0.00
2013-4-28,55,49,43,48,43,38,97,82,61,30.14,29.94,14,9,28,0.07
2013-4-29,56,47,40,45,41,37,91,79,58,30.30,29.98,13,7,26,0.06
2013-4-30,55,47,39,45,41,37,93,80,61,30.37,30.29,13,5,19,0.00
2013-5-1,58,52,47,48,44,38,94,76,50,30.31,30.25,10,5,16,0.00
2013-5-2,57,52,46,51,47,40,94,85,78,30.30,30.11,16,8,27,0.00
2013-5-3,54,51,49,51,50,48,97,95,91,30.10,29.85,18,12,35,0.39
2013-5-4,55,49,41,52,47,41,99,91,77,29.98,29.83,17,10,34,0.12
2013-5-5,58,53,51,53,51,50,99,93,82,30.05,29.96,17,11,30,0.18
2013-5-6,62,55,51,55,51,49,95,88,75,30.03,29.96,7,3,15,0.01
2013-5-7,62,55,49,53,50,47,94,85,67,29.98,29.60,13,5,25,0.06
2013-5-8,54,50,46,53,49,44,99,95,88,29.59,29.29,19,11,40,1.08
2013-5-9,55,50,46,49,46,44,97,87,70,29.63,29.11,19,11,39,0.69
2013-5-10,53,50,46,50,46,42,97,87,67,29.75,29.63,20,11,31,0.06
2013-5-11,54,49,45,49,44,40,97,82,63,30.01,29.72,15,9,29,0.13
2013-5-12,57,52,48,52,50,42,98,92,71,29.92,29.84,16,12,29,0.15
2013-5-13,53,47,41,45,42,39,93,82,60,29.86,29.75,17,11,31,0.22
2013-5-14,54,47,40,47,42,38,92,83,61,29.75,29.42,14,8,32,0.13
2013-5-15,52,47,44,45,42,37,91,82,58,29.63,29.55,12,7,28,0.10
2013-5-16,54,47,44,48,44,41,97,90,70,29.62,29.43,7,3,15,0.34
2013-5-17,62,50,44,48,45,41,97,83,48,29.99,29.63,11,4,31,0.06
2013-5-18,51,49,45,49,47,44,97,92,86,29.99,29.75,8,5,19,0.05
2013-5-19,59,53,48,53,50,47,98,91,79,30.08,29.76,6,2,10,0.00
2013-5-20,57,53,50,53,50,48,97,91,84,30.24,30.07,11,5,23,0.00
2013-5-21,63,54,50,53,49,46,94,82,64,30.27,30.20,11,5,22,0.00
2013-5-22,58,53,48,49,44,41,93,73,57,30.34,30.26,10,6,21,0.00
2013-5-23,56,51,46,42,40,38,78,67,54,30.30,30.20,11,7,22,0.00
2013-5-24,58,51,46,44,41,38,79,68,56,30.21,30.15,11,7,22,0.00
2013-5-25,57,54,51,53,50,46,96,89,72,30.19,30.17,9,5,14,0.06
2013-5-26,58,53,50,52,51,48,96,91,80,30.17,29.68,15,6,24,0.23
2013-5-27,56,51,47,49,47,45,97,86,71,29.67,29.43,16,10,27,0.21
2013-5-28,58,51,46,51,48,44,95,87,71,29.74,29.49,8,5,18,0.29
2013-5-29,68,60,47,54,49,45,96,69,50,30.11,29.74,11,6,21,0.00
2013-5-30,64,58,49,53,49,44,90,74,57,30.19,30.10,8,4,17,0.00
2013-5-31,61,56,50,53,48,42,94,78,52,30.33,30.17,7,4,16,0.00
2013-6-1,59,54,48,52,49,45,93,83,69,30.43,30.31,12,6,20,0.00
2013-6-2,58,54,48,55,51,47,97,91,75,30.48,30.41,10,6,17,0.00
2013-6-3,68,60,52,58,54,52,98,83,62,30.49,30.42,6,2,11,0.00
2013-6-4,73,64,53,57,52,47,93,68,41,30.43,30.23,6,2,14,0.00
2013-6-5,73,61,48,55,50,45,91,69,48,30.24,30.07,7,3,17,0.00
2013-6-6,73,63,51,55,52,47,90,68,49,30.23,30.12,7,3,16,0.00
2013-6-7,75,64,52,57,53,49,93,69,47,30.27,30.22,8,4,18,0.00
2013-6-8,76,65,53,56,52,48,95,67,38,30.26,30.07,4,2,11,0.00
2013-6-9,75,64,55,60,54,50,94,72,47,30.07,29.86,10,3,17,0.00
2013-6-10,60,57,53,54,52,49,88,82,74,29.88,29.68,14,8,27,0.02
2013-6-11,62,57,52,60,54,50,98,92,80,29.69,29.60,12,5,20,0.51
2013-6-12,63,55,48,55,51,47,98,87,61,29.72,29.55,7,3,14,0.24
2013-6-13,62,56,51,53,51,47,97,84,60,29.88,29.58,15,8,27,0.15
2013-6-14,58,54,48,55,51,46,96,91,82,29.84,29.47,12,6,26,0.33
2013-6-15,63,54,47,56,50,44,94,86,71,29.73,29.51,16,9,28,0.03
2013-6-16,61,56,52,55,53,50,98,89,70,29.91,29.73,11,3,18,0.08
2013-6-17,66,59,53,57,54,52,97,86,68,30.03,29.91,6,3,14,0.02
2013-6-18,66,59,52,58,53,47,96,82,64,30.06,29.98,11,4,18,0.00
2013-6-19,64,57,50,55,52,48,94,83,70,30.09,30.01,12,6,19,0.00
2013-6-20,65,59,56,60,55,52,95,86,68,30.01,29.80,10,4,17,0.02
2013-6-21,61,56,53,56,52,47,97,87,65,29.91,29.51,12,6,24,0.19
2013-6-22,61,56,52,56,53,50,95,88,76,29.73,29.41,18,12,34,0.10
2013-6-23,62,56,50,52,49,46,93,80,61,30.26,29.72,14,8,29,0.03
2013-6-24,63,56,49,51,49,45,93,77,57,30.29,30.25,10,5,18,0.00
2013-6-25,66,59,56,59,54,49,89,82,71,30.49,30.28,9,3,16,0.01
2013-6-26,65,58,53,54,51,48,91,78,60,30.54,30.48,11,3,17,0.00
2013-6-27,67,58,51,62,56,48,97,93,83,30.53,30.33,14,7,24,0.00
2013-6-28,63,58,54,61,56,51,99,94,85,30.33,30.18,16,8,25,0.02
2013-6-29,68,60,54,62,57,51,98,91,76,30.28,30.21,15,8,28,0.02
2013-6-30,59,57,54,58,54,49,98,89,75,30.25,30.04,17,11,32,0.05
2013-7-1,62,56,52,53,51,48,94,81,62,30.04,29.85,12,7,21,0.08
2013-7-2,60,56,52,59,54,50,98,95,91,29.85,29.48,14,8,26,0.28
2013-7-3,63,57,53,60,55,52,98,93,81,29.83,29.57,13,8,26,0.03
2013-7-4,61,58,56,60,54,51,99,87,74,30.26,29.78,15,10,29,0.17
2013-7-5,65,60,56,58,55,50,92,84,73,30.37,30.26,12,7,21,0.00
2013-7-6,65,59,55,60,56,51,98,90,81,30.48,30.32,12,6,21,0.02
2013-7-7,76,65,59,68,63,58,99,91,76,30.57,30.48,7,2,12,0.01
2013-7-8,84,72,60,68,64,59,98,77,54,30.57,30.46,6,2,12,0.00
2013-7-9,85,74,63,71,66,62,96,77,57,30.47,30.34,6,3,13,0.00
2013-7-10,84,73,61,69,64,60,96,76,51,30.37,30.26,5,3,14,0.00
2013-7-11,84,73,61,68,63,57,95,74,48,30.30,30.22,5,2,11,0.00
2013-7-12,75,68,62,68,64,57,96,86,77,30.30,30.24,12,4,18,0.00
2013-7-13,73,66,59,64,60,56,96,84,68,30.36,30.30,7,4,13,0.00
2013-7-14,70,62,54,63,56,52,96,83,56,30.34,30.25,14,4,21,0.00
2013-7-15,67,63,58,59,57,54,90,81,71,30.28,30.25,9,5,15,0.00
2013-7-16,73,66,62,64,61,59,94,86,63,30.28,30.23,10,6,18,0.00
2013-7-17,74,66,58,64,61,57,97,84,61,30.36,30.27,9,4,15,0.00
2013-7-18,81,70,61,67,63,59,97,82,58,30.38,30.30,5,2,11,0.00
2013-7-19,86,74,60,66,62,55,96,71,39,30.33,30.18,5,3,12,0.00
2013-7-20,87,76,63,66,62,58,90,64,40,30.22,30.10,9,3,18,0.00
2013-7-21,76,70,62,64,62,59,90,77,64,30.13,29.97,6,3,13,0.00
2013-7-22,75,68,62,66,62,58,91,82,71,29.99,29.85,8,3,15,0.01
2013-7-23,74,65,62,65,62,58,95,89,69,29.85,29.75,10,3,16,0.86
2013-7-24,68,63,61,64,61,59,97,93,83,29.77,29.68,13,6,27,0.31
2013-7-25,71,64,56,63,60,55,98,86,69,29.81,29.75,10,4,16,0.01
2013-7-26,75,65,58,62,59,56,96,81,53,29.82,29.76,8,2,15,0.01
2013-7-27,71,64,60,64,60,58,95,85,66,29.78,29.58,7,4,17,0.24
2013-7-28,72,64,58,62,59,57,96,85,66,29.58,29.50,7,3,14,0.00
2013-7-29,68,63,59,62,58,53,97,84,62,29.81,29.57,14,6,24,0.39
2013-7-30,68,61,57,60,56,54,96,85,67,29.88,29.75,16,7,27,0.55
2013-7-31,67,61,57,66,59,54,99,93,86,29.88,29.61,12,4,22,0.76
2013-8-1,68,66,63,67,64,60,98,95,88,29.61,29.39,11,6,21,0.72
2013-8-2,67,62,56,60,58,54,95,85,75,29.64,29.36,18,12,32,0.32
2013-8-3,66,60,55,60,56,53,96,87,72,29.87,29.64,13,7,23,0.20
2013-8-4,70,62,56,59,55,52,97,80,54,29.89,29.84,6,4,13,0.06
2013-8-5,66,59,51,55,53,49,95,81,60,29.98,29.86,9,4,16,0.00
2013-8-6,67,60,55,58,56,53,96,86,66,29.98,29.87,8,3,15,0.14
2013-8-7,70,61,54,60,56,53,98,84,62,30.05,29.89,6,1,9,0.00
2013-8-8,69,61,57,62,58,54,96,91,75,30.05,29.89,11,5,21,0.13
2013-8-9,65,60,56,56,53,51,93,79,63,30.22,29.98,10,6,22,0.00
2013-8-10,65,60,56,59,55,52,94,83,69,30.22,30.10,13,6,21,0.00
2013-8-11,64,58,54,56,53,50,93,84,69,30.10,30.06,12,7,21,0.01
2013-8-12,66,59,54,54,51,45,92,76,49,30.18,30.06,10,6,19,0.00
2013-8-13,66,61,57,58,56,54,95,85,73,30.20,30.10,9,5,15,0.00
2013-8-14,66,62,61,64,61,57,98,96,87,30.10,29.95,11,6,19,0.19
2013-8-15,68,63,55,67,62,53,98,95,86,29.96,29.78,12,7,23,0.23
2013-8-16,68,62,55,62,58,53,96,88,76,29.93,29.83,13,7,24,0.10
2013-8-17,66,62,55,63,59,53,98,91,76,29.83,29.52,13,8,26,0.20
2013-8-18,65,58,54,56,53,50,95,83,63,29.93,29.65,14,7,26,0.02
2013-8-19,67,60,53,58,56,51,94,84,66,30.26,29.93,15,8,25,0.02
2013-8-20,67,63,60,61,59,57,92,86,73,30.26,30.09,9,6,21,0.03
2013-8-21,58,58,57,56,56,56,96,95,94,30.13,30.12,5,3,9,0.08
2013-8-22,71,62,56,63,59,55,98,89,72,30.12,29.87,8,3,18,0.02
2013-8-23,66,61,53,61,57,48,98,87,68,30.02,29.81,10,6,23,0.30
2013-8-24,63,58,54,62,55,49,97,90,79,30.03,29.90,9,4,15,0.13
2013-8-25,64,60,55,57,56,54,96,88,77,30.22,30.00,5,2,13,0.02
2013-8-26,63,60,56,60,57,54,97,92,87,30.22,30.14,9,2,14,0.00
2013-8-27,67,61,54,62,58,51,98,91,76,30.28,30.13,7,4,19,0.01
2013-8-28,66,59,54,61,55,50,97,85,72,30.28,30.13,12,5,21,0.01
2013-8-29,65,61,59,61,60,58,98,95,83,30.13,30.08,11,7,21,0.05
2013-8-30,65,60,52,62,57,46,98,89,69,30.29,29.98,18,9,29,0.08
2013-8-31,64,57,53,53,50,46,84,77,62,30.50,30.29,11,5,18,0.00
2013-9-1,64,59,55,58,53,50,95,82,74,30.50,30.36,14,8,26,0.00
2013-9-2,63,61,59,62,60,58,99,97,95,30.36,30.31,13,9,23,0.06
2013-9-3,67,61,57,60,56,53,95,84,66,30.35,30.17,12,5,21,0.00
2013-9-4,71,60,53,62,56,51,96,87,69,30.17,29.92,13,6,22,0.10
2013-9-5,63,54,46,52,48,44,98,81,53,30.00,29.95,10,3,18,0.02
2013-9-6,60,53,46,50,47,44,94,81,61,30.00,29.93,10,5,23,0.09
2013-9-7,53,51,49,50,47,45,94,88,77,29.99,29.92,10,6,20,0.10
2013-9-8,59,54,50,51,49,47,93,82,68,29.98,29.92,9,4,15,0.00
2013-9-9,62,56,50,57,52,47,96,88,75,30.34,29.98,8,2,17,0.00
2013-9-10,62,56,50,54,51,48,94,85,72,30.41,30.34,7,3,14,0.00
2013-9-11,67,60,55,64,58,52,97,94,88,30.40,30.18,11,6,18,0.22
2013-9-12,64,60,53,64,59,51,99,97,91,30.18,30.03,11,6,21,0.13
2013-9-13,60,54,50,52,50,47,94,85,67,30.16,30.10,7,1,10,0.00
2013-9-14,62,55,49,53,50,47,96,84,65,30.17,30.00,12,3,22,0.00
2013-9-15,61,56,48,60,52,43,98,86,58,30.00,29.57,19,13,37,0.24
2013-9-16,58,50,46,48,45,42,92,81,61,29.75,29.64,16,9,32,0.14
2013-9-17,63,55,50,60,53,44,98,91,76,29.70,29.41,17,8,31,0.36
2013-9-18,60,53,48,51,48,45,97,83,62,29.91,29.54,11,5,24,0.06
2013-9-19,62,57,53,59,52,48,98,83,69,29.98,29.58,16,8,29,0.22
2013-9-20,65,58,53,57,52,48,93,81,70,30.04,29.98,11,4,20,0.00
2013-9-21,64,61,59,62,60,57,99,97,93,30.21,30.01,13,7,24,0.02
2013-9-22,73,64,60,64,61,59,98,89,71,30.27,30.20,10,6,18,0.00
2013-9-23,74,64,57,66,60,55,96,89,77,30.21,30.00,12,4,23,0.00
2013-9-24,66,62,59,62,59,57,95,91,86,30.00,29.89,9,2,17,0.00
2013-9-25,68,62,59,62,60,57,98,92,78,29.90,29.82,5,1,11,0.00
2013-9-26,68,62,58,62,59,57,98,92,81,29.92,29.87,5,2,12,0.02
2013-9-27,68,61,54,62,58,53,97,91,80,29.93,29.81,5,2,13,0.00
2013-9-28,68,61,55,61,57,53,94,88,77,29.81,29.67,7,3,14,0.01
2013-9-29,65,60,58,58,55,53,92,84,77,29.69,29.63,6,3,14,0.00
2013-9-30,63,60,58,59,57,53,95,91,83,29.63,29.53,9,6,21,0.03
2013-10-1,69,63,61,63,60,59,97,91,78,29.55,29.50,9,5,18,0.12
2013-10-2,69,63,61,62,60,59,97,90,72,29.50,29.45,10,6,20,0.08
2013-10-3,65,61,57,64,60,55,98,95,93,29.55,29.47,9,4,19,0.27
2013-10-4,63,58,55,60,55,50,98,92,82,29.94,29.55,10,4,16,0.02
2013-10-5,66,60,55,59,56,52,96,86,70,30.11,29.94,13,6,23,0.01
2013-10-6,63,61,59,63,60,56,99,97,88,30.11,30.07,11,7,20,0.31
2013-10-7,67,62,60,63,60,59,99,95,85,30.10,29.99,13,7,22,0.13
2013-10-8,62,57,54,59,55,51,98,92,80,30.34,30.10,10,4,18,0.02
2013-10-9,57,52,48,53,47,41,94,83,63,30.37,30.27,11,6,25,0.00
2013-10-10,56,48,42,46,42,39,92,80,62,30.45,30.37,10,4,21,0.00
2013-10-11,57,46,37,49,42,36,95,86,71,30.44,30.37,8,3,18,0.00
2013-10-12,53,49,42,50,47,41,97,92,86,30.39,30.19,7,3,13,0.00
2013-10-13,58,52,48,51,49,46,97,90,76,30.19,30.01,6,2,13,0.01
2013-10-14,58,50,44,51,46,42,97,87,67,30.02,29.88,6,2,12,0.01
2013-10-15,59,49,40,51,46,39,98,89,74,29.89,29.76,8,3,17,0.00
2013-10-16,60,55,52,56,52,49,98,91,82,29.76,29.53,14,6,26,0.35
2013-10-17,64,58,55,59,56,53,97,92,81,29.83,29.70,7,5,14,0.01
2013-10-18,60,58,56,58,56,53,96,94,89,29.80,29.41,13,6,27,0.11
2013-10-19,63,57,53,58,55,51,98,93,79,29.41,29.31,7,5,19,0.02
2013-10-20,61,55,52,57,53,50,98,94,82,29.50,29.20,12,5,18,0.28
2013-10-21,58,54,49,58,54,48,99,98,96,29.50,29.11,9,4,22,0.24
2013-10-22,61,57,53,58,56,53,99,96,87,29.12,29.00,9,5,17,0.24
2013-10-23,56,50,44,53,46,41,98,86,69,29.72,29.04,10,6,22,0.08
2013-10-24,60,51,43,56,50,41,98,95,88,29.77,29.49,7,3,18,0.09
2013-10-25,62,56,51,58,55,50,98,95,83,29.52,29.28,10,5,20,0.18
2013-10-26,56,53,51,52,50,48,97,90,81,29.52,29.08,14,8,27,0.29
2013-10-27,57,53,50,53,50,47,94,88,82,29.14,28.95,22,14,41,0.45
2013-10-28,54,49,45,49,46,42,94,90,75,29.67,29.03,15,7,25,0.06
2013-10-29,54,47,43,47,43,40,94,85,66,30.00,29.67,11,5,21,0.01
2013-10-30,57,51,47,54,48,44,95,90,77,29.97,29.63,15,8,32,0.18
2013-10-31,55,51,47,52,48,44,93,89,80,29.90,29.73,19,10,36,0.35
2013-11-1,54,47,42,48,44,38,95,88,73,29.77,29.53,10,4,16,0.09
2013-11-2,50,46,43,48,44,40,96,91,84,29.53,28.86,20,10,42,0.17
2013-11-3,53,46,40,47,42,38,95,88,73,29.53,29.30,11,4,19,0.01
2013-11-4,52,42,32,50,40,32,99,93,78,29.48,29.24,15,4,28,0.05
2013-11-5,50,47,44,49,45,43,98,92,82,29.44,29.22,13,6,25,0.17
2013-11-6,48,46,41,47,44,39,97,95,93,29.57,29.39,11,4,23,0.16
2013-11-7,53,47,40,47,43,39,95,87,75,29.60,29.51,21,9,38,0.31
2013-11-8,48,44,41,45,42,37,97,91,84,29.65,29.55,12,4,20,0.20
2013-11-9,49,44,39,44,41,37,95,90,80,29.80,29.58,10,4,16,0.08
2013-11-10,56,45,38,55,44,37,99,96,93,30.05,29.80,11,5,22,0.43
2013-11-11,56,53,48,55,52,46,99,96,89,30.21,29.84,11,6,20,0.26
2013-11-12,53,47,43,47,43,40,95,87,70,30.54,30.20,10,5,17,0.01
2013-11-13,53,48,44,52,45,40,97,89,81,30.53,30.11,16,9,31,0.36
2013-11-14,53,48,44,44,42,40,90,81,70,30.64,30.29,13,6,30,0.02
2013-11-15,53,51,48,50,47,43,89,87,84,30.63,30.50,7,4,15,0.00
2013-11-16,55,53,50,53,51,48,98,92,86,30.50,30.38,10,6,17,0.08
2013-11-17,54,49,46,54,49,46,100,99,98,30.39,30.02,12,4,24,0.66
2013-11-18,47,42,36,46,41,34,99,94,85,30.08,29.95,10,4,24,0.05
2013-11-19,47,41,34,45,37,32,95,87,70,30.22,30.01,14,5,23,0.02
2013-11-20,48,45,41,45,41,36,94,86,73,30.01,29.84,12,8,29,0.07
2013-11-21,45,41,36,38,36,34,93,84,68,30.19,29.99,12,6,27,0.00
2013-11-22,45,38,32,40,35,30,97,91,77,30.35,30.19,6,2,11,0.00
2013-11-23,47,41,32,46,40,30,99,97,94,30.50,30.35,4,1,9,0.01
2013-11-24,47,44,42,46,44,42,99,99,98,30.69,30.50,3,1,7,0.01
2013-11-25,48,45,43,45,44,42,99,94,85,30.81,30.68,4,1,6,0.00
2013-11-26,52,46,43,48,44,41,97,92,80,30.80,30.71,7,3,12,0.00
2013-11-27,52,50,48,48,46,44,96,88,83,30.71,30.64,5,3,9,0.00
2013-11-28,52,50,48,50,47,44,96,93,83,30.67,30.58,7,2,13,0.00
2013-11-29,51,49,46,50,44,41,94,84,72,30.58,30.47,12,6,20,0.00
2013-11-30,52,47,42,46,44,40,94,89,79,30.57,30.51,6,3,11,0.00
2013-12-1,50,48,45,48,45,41,97,91,80,30.61,30.54,5,2,10,0.00
2013-12-2,50,47,46,46,44,41,92,88,82,30.57,30.39,8,5,17,0.00
2013-12-3,52,48,42,51,47,41,97,94,91,30.39,30.25,12,6,21,0.39
2013-12-4,48,42,37,43,39,35,96,89,78,30.56,30.39,15,4,25,0.01
2013-12-5,50,48,43,49,44,41,95,87,79,30.44,30.24,22,12,40,0.08
2013-12-6,51,47,43,48,45,41,97,94,88,30.43,30.35,10,6,20,0.02
2013-12-7,52,49,45,50,47,43,96,92,89,30.35,30.12,12,7,21,0.08
2013-12-8,54,53,52,52,52,50,97,95,94,30.15,30.09,17,12,29,0.06
2013-12-9,53,51,49,52,49,46,95,91,83,30.17,30.05,14,9,23,0.00
2013-12-10,56,53,50,54,51,48,94,92,89,30.10,30.02,13,9,27,0.00
2013-12-11,55,52,51,52,49,48,94,89,85,30.11,29.87,16,10,31,0.02
2013-12-12,58,56,53,57,54,52,97,94,90,29.87,29.71,12,8,25,0.02
2013-12-13,56,49,44,54,46,38,96,87,77,30.00,29.62,20,11,37,0.10
2013-12-14,55,50,45,53,47,40,96,91,77,29.98,29.43,25,12,48,0.94
2013-12-15,50,47,43,48,44,39,96,90,80,29.88,29.55,15,8,31,0.30
2013-12-16,50,44,39,45,39,35,92,84,73,30.06,29.57,17,7,31,0.20
2013-12-17,48,45,40,46,41,37,95,87,82,30.10,29.52,19,11,35,0.11
2013-12-18,52,48,40,51,45,35,97,90,74,29.52,28.75,34,14,60,0.57
2013-12-19,43,39,35,39,36,33,94,88,72,29.72,29.12,18,9,33,0.28
2013-12-20,53,48,41,52,45,38,98,91,80,29.81,29.42,23,13,41,0.63
2013-12-21,50,46,40,46,42,37,94,86,76,29.57,29.38,21,13,35,0.57
2013-12-22,45,40,36,41,37,34,96,89,78,29.66,29.42,20,10,36,0.61
2013-12-23,52,46,39,51,44,36,98,91,78,29.59,28.35,26,13,48,0.39
2013-12-24,44,41,37,41,37,30,97,85,61,28.73,28.33,31,14,58,0.65
2013-12-25,47,41,37,42,38,34,95,88,81,29.14,28.73,10,4,19,0.04
2013-12-26,50,42,36,48,40,34,97,93,82,29.35,28.25,31,10,57,0.48
2013-12-27,49,44,39,46,42,38,96,92,87,29.08,28.20,33,17,56,0.61
2013-12-28,47,40,37,43,38,35,96,91,80,29.76,29.09,9,5,18,0.02
2013-12-29,49,43,38,48,41,34,98,93,86,29.83,29.41,16,8,32,0.51
2013-12-30,48,44,41,46,43,40,98,93,81,29.58,29.21,15,6,31,0.23
2013-12-31,48,43,40,46,40,37,96,91,77,29.24,29.07,18,9,37,0.27
2014-1-1,43,42,40,42,41,38,97,96,92,29.17,28.72,12,6,21,0.13
2014-1-2,48,46,40,46,43,39,96,90,78,29.12,28.65,19,9,40,0.10